Simultaneous Nadir Overpasses (SNOs) Predictions

Prediction of SNOs between AQUA and GOES-15 Satellite Orbit:

Table of predicted SNOs for the next 14.0 days since TLE Epoch: 10/29/2016
Index Date Time (AQUA) AQUA Lat,Lon GOES-15 Lat,Lon Distance(km) Time Diff (sec)
1 10/30/2016 22:28:27 0.14,-133.36 -0.13,-134.70 152.18 80
2 10/31/2016 10:49:43 0.91,-138.53 0.10,-134.78 426.78 80
3 11/01/2016 22:16:17 0.83,-130.42 -0.13,-134.79 497.26 80
4 11/02/2016 10:37:32 0.29,-135.57 0.11,-134.86 81.96 80
5 11/04/2016 10:25:22 -0.41,-132.63 0.11,-134.93 262.21 80
6 11/04/2016 22:46:46 -0.73,-137.81 -0.09,-134.90 332.46 80
7 11/06/2016 22:34:35 -0.09,-134.86 -0.09,-134.96 11.14 80
8 11/08/2016 22:22:24 0.56,-131.91 -0.09,-135.02 353.71 80
9 11/09/2016 10:43:40 0.49,-137.07 0.07,-135.09 225.75 80
10 11/11/2016 10:31:29 -0.16,-134.12 0.07,-135.14 116.38 80
11 11/11/2016 22:52:53 -0.96,-139.31 -0.05,-135.10 478.95 80




NCC Satellite Simultaneous Nadir Overpasses (SNOs) Prediction Service
